Weather Roundup
Issued by NWS Chicago, IL

Home | Current Version | Previous Version | Graphics & Text | Print | Product List | Glossary On
Versions: 1 2 3 4 5 6 7 8 9 10 11 12 13 14 15 16 17 18 19 20 21 22 23 24 25 26 27 28 29 30 31 32 33 34 35 36 37 38 39 40 41 42 43 44 45 46 47 48 49 50
000
NZUS59 KLOT 101708
HRRLOT

CHICAGO AREA WEATHER ROUNDUP
NATIONAL WEATHER SERVICE CHICAGO/ROMEOVILLE IL
1100 AM CST SAT DEC 10 2016

NOTE: "FAIR" INDICATES FEW OR NO CLOUDS BELOW 12,000 FEET WITH NO
SIGNIFICANT WEATHER AND/OR OBSTRUCTIONS TO VISIBILITY.

* THESE STATIONS ARE NOT UNDER NWS QUALITY CONTROL. THEY ALSO MAY NOT
  REPORT WEATHER SUCH AS PRECIPITATION OR FOG.

ILZ005-006-012>014-019>023-101800-
NORTHEAST ILLINOIS

CITY           SKY/WX    TMP DP  RH WIND       PRES   REMARKS
OHARE          PTSUNNY   22  13  68 W10       30.49F WCI  11
MIDWAY         PTSUNNY   24  13  62 W9        30.51F WCI  14
AURORA         CLOUDY    22  15  75 SW6       30.51F WCI  14
LANSING*       SUNNY     24  17  74 W9        30.52F WCI  14
JOLIET*        CLOUDY    24  17  72 W8        30.52F WCI  15
WAUKEGAN       MOSUNNY   22  13  68 VRB6      30.47F WCI  14
DUPAGE AIRPORT MOSUNNY   21  13  71 W9        30.49F WCI  11
WHEELING       MOSUNNY   22  12  65 W9        30.51F WCI  12
KANKAKEE*      CLOUDY    25  16  68 CALM      30.54F
MORRIS*        CLOUDY    23  15  69 W3        30.52F
LEWIS AIRPORT* MOSUNNY   22  18  84 W7        30.52F WCI  14
NORTHERLY ISL    N/A     24  13  62 W13         N/A  WCI  13
$$

WIZ051-052-058>065-066-070>072-101800-
SOUTHEAST WISCONSIN

CITY           SKY/WX    TMP DP  RH WIND       PRES   REMARKS
MILWAUKEE      PTSUNNY   23  10  57 W9        30.47F WCI  13
KENOSHA*       MOSUNNY   21  12  68 W13       30.47F WCI   9
RACINE*        PTSUNNY   22  11  62 W14       30.48F WCI   9
BURLINGTON     MOSUNNY   24  17  76 W8        30.47F WCI  15
WAUKESHA       PTSUNNY   18   9  68 W10       30.46F WCI   6
WEST BEND      MOSUNNY   18  10  73 NW8       30.44F WCI   7
$$

INZ001>003-010>013-019-020-101800-
NORTHWEST INDIANA

CITY           SKY/WX    TMP DP  RH WIND       PRES   REMARKS
GARY*          PTSUNNY   27  14  59 SW12      30.53F WCI  16
MICHIGAN CITY* NOT AVBL
RENSSELAER*    NOT AVBL
VALPARAISO     SUNNY     25  14  63 SW12      30.50F WCI  14
$$

LMZ740>746-101800-
SOUTHERN LAKE MICHIGAN

STATION/POSITION TIME  SKY/WX   TEMP WIND        PRES    VSBY
                                AIR  DIR/SP/G
                 (UTC)          (F)  (DEG/KT/KT) (MB)    (MI)
HARRISON CRIB    NOT AVBL
BURNHAM HARBOR   1700            24  290/  6/ 11   N/A
CALUMET HARBOR   1630            23  240/  7/ 11 1032.6F
BURNS HARBOR     1640            24  250/ 11/ 14 1033.5F
MICHIGAN CITY    NOT AVBL
$$

ABBREVIATIONS USED IN REMARKS
   TC - TEMPERATURE IN CELSIUS
  WCI - WIND CHILL INDEX
   HX - HEAT INDEX
  VSB - VISIBILITY
$$



USA.gov is the U.S. government's official web portal to all federal, state and local government web resources and services.